K5SVV Weather Reports


Display with metric or nautical units.
time (UTC)temp
F
wind
direction
speed
MPH
gust
MPH
rain 1hr
in
rain 24hr
in
rain mn
in
humidity
%
barometer
mb
20260504044726 65 181 2.0 2.0 0.00 0.00 0.00 66 1015.5
20260504044223 65 198 4.0 7.0 0.00 0.00 0.00 66 1015.5
20260504043720 65 186 5.0 7.0 0.00 0.00 0.00 66 1015.4
20260504043216 65 190 4.0 4.0 0.00 0.00 0.00 65 1015.6
20260504042714 65 190 0.0 0.0 0.00 0.00 0.00 66 1015.6
20260504042210 65 172 4.0 4.0 0.00 0.00 0.00 66 1015.7
20260504041707 65 193 5.0 7.0 0.00 0.00 0.00 66 1015.7
20260504041202 65 190 5.0 6.0 0.00 0.00 0.00 66 1015.6
20260504040659 65 171 4.0 4.0 0.00 0.00 0.00 65 1015.6
20260504040156 66 200 2.0 2.0 0.00 0.00 0.00 65 1015.7
20260504035653 66 180 3.0 6.0 0.00 0.00 0.00 65 1015.8
20260504035150 66 175 4.0 6.0 0.00 0.00 0.00 65 1015.5
20260504034647 66 175 0.0 0.0 0.00 0.00 0.00 65 1015.7
20260504034144 66 150 2.0 2.0 0.00 0.00 0.00 65 1015.6
20260504033642 66 195 0.0 0.0 0.00 0.00 0.00 65 1015.6
20260504033139 66 176 4.0 6.0 0.00 0.00 0.00 64 1015.7
20260504032636 66 159 1.0 3.0 0.00 0.00 0.00 63 1015.6
20260504032133 66 175 3.0 3.0 0.00 0.00 0.00 63 1015.8
20260504031630 66 189 3.0 6.0 0.00 0.00 0.00 62 1015.5
20260504031126 66 193 5.0 6.0 0.00 0.00 0.00 62 1015.7
20260504030623 67 158 3.0 3.0 0.00 0.00 0.00 61 1015.6
20260504030120 67 189 4.0 4.0 0.00 0.00 0.00 61 1015.3
20260504025617 67 198 0.0 0.0 0.00 0.00 0.00 60 1015.5
20260504025114 67 153 4.0 6.0 0.00 0.00 0.00 60 1015.4
20260504024611 67 176 1.0 4.0 0.00 0.00 0.00 59 1015.5
20260504024107 68 193 4.0 6.0 0.00 0.00 0.00 59 1015.6
20260504023604 68 186 4.0 6.0 0.00 0.00 0.00 59 1015.5
20260504023100 68 208 4.0 6.0 0.00 0.00 0.00 58 1015.2
20260504022556 68 201 1.0 3.0 0.00 0.00 0.00 59 1015.5
20260504022052 68 206 4.0 4.0 0.00 0.00 0.00 58 1015.3
20260504021550 68 177 5.0 7.0 0.00 0.00 0.00 58 1015.4
20260504021047 68 204 5.0 6.0 0.00 0.00 0.00 58 1015.3
20260504020544 68 196 1.0 2.0 0.00 0.00 0.00 58 1015.6
20260504020040 69 181 3.0 3.0 0.00 0.00 0.00 58 1015.4
20260504015537 69 188 0.0 0.0 0.00 0.00 0.00 58 1015.5
20260504015032 69 189 0.0 2.0 0.00 0.00 0.00 58 1015.3
20260504014529 69 186 3.0 4.0 0.00 0.00 0.00 57 1015.4
20260504014026 69 162 0.0 1.0 0.00 0.00 0.00 57 1015.2
20260504013524 69 185 0.0 0.0 0.00 0.00 0.00 56 1015.1
20260504013021 70 159 1.0 3.0 0.00 0.00 0.00 56 1015.1
20260504012518 70 201 2.0 3.0 0.00 0.00 0.00 56 1015.0
20260504012016 70 186 0.0 0.0 0.00 0.00 0.00 55 1015.1
20260504011512 70 183 2.0 3.0 0.00 0.00 0.00 54 1015.5
20260504011008 71 169 1.0 2.0 0.00 0.00 0.00 54 1015.2
20260504010504 71 174 0.0 0.0 0.00 0.00 0.00 53 1015.3
20260504010000 71 199 4.0 6.0 0.00 0.00 0.00 52 1015.3
20260504005457 72 177 3.0 4.0 0.00 0.00 0.00 51 1015.3
20260504004955 72 194 2.0 2.0 0.00 0.00 0.00 52 1015.1
20260504004452 73 199 4.0 6.0 0.00 0.00 0.00 50 1015.3
20260504003949 73 192 0.0 0.0 0.00 0.00 0.00 51 1015.3
20260504003445 73 184 3.0 3.0 0.00 0.00 0.00 49 1015.2
20260504002942 74 181 4.0 6.0 0.00 0.00 0.00 49 1015.2
20260504002439 74 195 5.0 7.0 0.00 0.00 0.00 48 1015.2
20260504001937 74 193 2.0 6.0 0.00 0.00 0.00 48 1015.5
20260504001434 75 172 3.0 3.0 0.00 0.00 0.00 46 1015.4
20260504000930 75 166 5.0 7.0 0.00 0.00 0.00 46 1015.3
20260504000427 75 178 5.0 8.0 0.00 0.00 0.00 45 1015.4
20260503235925 76 191 5.0 9.0 0.00 0.00 0.00 45 1015.4
20260503235422 76 198 6.0 8.0 0.00 0.00 0.00 44 1015.3
20260503234920 76 182 6.0 8.0 0.00 0.00 0.00 44 1015.2
20260503234417 77 189 4.0 4.0 0.00 0.00 0.00 44 1015.4
20260503233915 77 169 6.0 9.0 0.00 0.00 0.00 43 1015.5
20260503233411 77 153 3.0 6.0 0.00 0.00 0.00 44 1015.5
20260503232908 77 169 6.0 8.0 0.00 0.00 0.00 44 1015.7
20260503232405 77 167 7.0 9.0 0.00 0.00 0.00 41 1015.6
20260503231903 78 188 8.0 9.0 0.00 0.00 0.00 40 1015.8
20260503231400 78 199 5.0 6.0 0.00 0.00 0.00 40 1015.8
20260503230856 78 220 7.0 9.0 0.00 0.00 0.00 38 1015.9
20260503230352 78 198 6.0 7.0 0.00 0.00 0.00 38 1015.8
20260503225850 78 208 6.0 7.0 0.00 0.00 0.00 39 1015.7
20260503225346 78 181 6.0 8.0 0.00 0.00 0.00 38 1015.8
20260503224843 78 197 6.0 7.0 0.00 0.00 0.00 39 1015.8
20260503224340 79 187 9.0 10.0 0.00 0.00 0.00 38 1015.7
20260503223838 78 181 2.0 6.0 0.00 0.00 0.00 39 1015.8
20260503223335 78 180 6.0 9.0 0.00 0.00 0.00 38 1015.8
20260503222830 78 165 9.0 10.0 0.00 0.00 0.00 38 1015.9
20260503222329 78 186 13.0 16.0 0.00 0.00 0.00 38 1015.9
20260503221827 78 191 6.0 7.0 0.00 0.00 0.00 41 1016.0
20260503221325 78 202 9.0 11.0 0.00 0.00 0.00 39 1016.1
20260503220815 78 195 3.0 4.0 0.00 0.00 0.00 39 1016.1
20260503220312 79 190 9.0 11.0 0.00 0.00 0.00 40 1016.3
20260503215809 79 209 8.0 11.0 0.00 0.00 0.00 40 1016.1
20260503215306 79 222 5.0 8.0 0.00 0.00 0.00 41 1016.3
20260503214804 80 222 4.0 7.0 0.00 0.00 0.00 43 1016.3
20260503214301 79 247 1.0 2.0 0.00 0.00 0.00 41 1016.3
20260503213758 79 228 6.0 7.0 0.00 0.00 0.00 39 1016.5
20260503213255 79 214 10.0 11.0 0.00 0.00 0.00 39 1016.6
20260503212752 79 201 10.0 13.0 0.00 0.00 0.00 41 1016.4
20260503212250 78 175 5.0 9.0 0.00 0.00 0.00 43 1016.6
20260503211747 79 198 5.0 6.0 0.00 0.00 0.00 40 1016.7
20260503211243 80 203 4.0 4.0 0.00 0.00 0.00 43 1016.8
20260503210739 79 158 3.0 4.0 0.00 0.00 0.00 41 1016.8
20260503210237 79 166 5.0 7.0 0.00 0.00 0.00 41 1016.6
20260503205732 79 170 5.0 7.0 0.00 0.00 0.00 41 1017.1
20260503205228 79 184 7.0 9.0 0.00 0.00 0.00 42 1017.2
20260503204725 79 176 7.0 8.0 0.00 0.00 0.00 42 1017.0
20260503204223 79 181 6.0 9.0 0.00 0.00 0.00 43 1017.5
20260503203720 79 230 4.0 7.0 0.00 0.00 0.00 41 1017.4
20260503203217 79 274 4.0 6.0 0.00 0.00 0.00 41 1017.5
20260503202714 79 201 6.0 7.0 0.00 0.00 0.00 38 1017.6
20260503202212 79 173 4.0 6.0 0.00 0.00 0.00 41 1017.8
20260503201710 79 171 5.0 8.0 0.00 0.00 0.00 41 1017.9
20260503201207 78 182 5.0 7.0 0.00 0.00 0.00 42 1018.1
20260503200703 78 193 2.0 8.0 0.00 0.00 0.00 44 1017.7
20260503200200 79 180 9.0 10.0 0.00 0.00 0.00 43 1018.1
20260503195656 79 146 8.0 11.0 0.00 0.00 0.00 39 1017.9
20260503195154 79 187 6.0 7.0 0.00 0.00 0.00 42 1018.1
20260503194650 78 169 5.0 8.0 0.00 0.00 0.00 45 1017.9
20260503194146 78 200 6.0 7.0 0.00 0.00 0.00 43 1018.5
20260503193643 78 193 7.0 9.0 0.00 0.00 0.00 38 1018.2
20260503193138 78 227 6.0 9.0 0.00 0.00 0.00 44 1018.5
20260503192634 78 201 7.0 8.0 0.00 0.00 0.00 42 1018.6
20260503192130 78 141 8.0 10.0 0.00 0.00 0.00 41 1018.5
20260503191627 78 225 4.0 9.0 0.00 0.00 0.00 46 1019.0
20260503191124 78 204 3.0 3.0 0.00 0.00 0.00 47 1019.1
20260503190621 78 197 9.0 10.0 0.00 0.00 0.00 47 1019.0
20260503190118 78 224 9.0 13.0 0.00 0.00 0.00 46 1019.1
20260503185614 78 201 8.0 10.0 0.00 0.00 0.00 45 1019.3
20260503185109 78 170 5.0 7.0 0.00 0.00 0.00 48 1019.1
20260503184604 77 179 2.0 3.0 0.00 0.00 0.00 48 1019.0
20260503184101 78 205 8.0 13.0 0.00 0.00 0.00 44 1019.3
20260503183557 77 230 2.0 3.0 0.00 0.00 0.00 49 1019.3
20260503183055 77 197 4.0 4.0 0.00 0.00 0.00 47 1019.6
20260503182553 77 200 6.0 8.0 0.00 0.00 0.00 45 1019.4
20260503182051 77 226 0.0 1.0 0.00 0.00 0.00 47 1019.5
20260503181548 77 253 4.0 6.0 0.00 0.00 0.00 45 1019.9
20260503181044 77 253 5.0 7.0 0.00 0.00 0.00 43 1019.8
20260503180541 77 226 5.0 7.0 0.00 0.00 0.00 45 1019.7
20260503180039 77 223 1.0 2.0 0.00 0.00 0.00 45 1020.2
20260503175536 77 212 6.0 7.0 0.00 0.00 0.00 48 1019.9
20260503175033 76 256 6.0 8.0 0.00 0.00 0.00 45 1020.1
20260503174530 77 198 11.0 14.0 0.00 0.00 0.00 49 1020.2
20260503174026 76 184 1.0 2.0 0.00 0.00 0.00 52 1020.4
20260503173522 76 193 7.0 8.0 0.00 0.00 0.00 50 1020.5
20260503173018 75 205 6.0 7.0 0.00 0.00 0.00 52 1020.3
20260503172516 76 238 2.0 6.0 0.00 0.00 0.00 53 1020.6
20260503172013 75 182 2.0 6.0 0.00 0.00 0.00 56 1020.8
20260503171509 75 187 4.0 6.0 0.00 0.00 0.00 54 1020.9
20260503171007 75 225 8.0 9.0 0.00 0.00 0.00 53 1020.8
20260503170503 75 264 6.0 8.0 0.00 0.00 0.00 54 1020.8
20260503150855 69 215 7.0 10.0 0.00 0.00 0.00 64 1021.1
20260503150351 69 203 0.0 1.0 0.00 0.00 0.00 66 1021.1
20260503131245 62 212 4.0 4.0 0.00 0.00 0.00 71 1020.7
20260503130743 62 258 4.0 6.0 0.00 0.00 0.00 71 1020.6
20260503130240 61 231 4.0 4.0 0.00 0.00 0.00 72 1020.7
20260503120206 57 208 5.0 6.0 0.00 0.00 0.00 79 1020.1
20260503110633 56 223 2.0 2.0 0.00 0.00 0.00 81 1019.6
20260503110131 56 227 3.0 4.0 0.00 0.00 0.00 80 1019.4
20260503081434 58 195 5.0 7.0 0.00 0.00 0.00 75 1019.3
20260503080932 58 195 3.0 4.0 0.00 0.00 0.00 75 1019.2
20260503080428 58 222 4.0 4.0 0.00 0.00 0.00 75 1019.3
20260503072904 58 225 2.0 4.0 0.00 0.00 0.00 72 1019.5
20260503072401 58 205 3.0 4.0 0.00 0.00 0.00 72 1019.8
20260503071858 59 196 0.0 0.0 0.00 0.00 0.00 71 1019.8
20260503071355 59 212 1.0 2.0 0.00 0.00 0.00 70 1019.7
20260503070851 59 201 0.0 0.0 0.00 0.00 0.00 71 1019.8
20260503070349 59 201 3.0 4.0 0.00 0.00 0.00 70 1019.7
20260503060315 60 188 2.0 3.0 0.00 0.00 0.00 68 1019.6
20260503054802 60 210 2.0 3.0 0.00 0.00 0.00 68 1019.8
20260503054258 60 208 0.0 0.0 0.00 0.00 0.00 68 1019.7
20260503053756 60 208 0.0 0.0 0.00 0.00 0.00 69 1019.8
20260503053255 60 206 0.0 0.0 0.00 0.00 0.00 69 1019.6
20260503052750 60 202 0.0 0.0 0.00 0.00 0.00 68 1019.4
20260503052248 60 211 0.0 0.0 0.00 0.00 0.00 68 1019.6
20260503051743 61 202 0.0 0.0 0.00 0.00 0.00 68 1019.7
20260503051240 61 201 0.0 0.0 0.00 0.00 0.00 67 1019.4
20260503050736 61 211 3.0 3.0 0.00 0.00 0.00 65 1019.4
20260503050227 61 201 0.0 0.0 0.00 0.00 0.00 65 1019.4
20260503045725 61 209 0.0 0.0 0.00 0.00 0.00 65 1019.5
20260503045223 61 210 0.0 0.0 0.00 0.00 0.00 67 1019.3